sat.trackr.live / text

‹ back to catalog

STARLINK-30585

NORAD 58063 · 2023-158N

PAYLOAD ACTIVE UNKNOWN

§ Identity

Operator
Country
US
Launch date
2023-10-13
Launch site
AFETR
Launch vehicle
Mass (kg)
RCS (m²)

Purposes: comms

External: N2YO · Heavens-Above · Gunter

§ Orbital elements

Epoch: 2026-05-24T21:27:42.519168Z

Period
94.26 min
Inclination
43.0042°
Eccentricity
0.0001776
Mean motion
15.27609400 rev/d
Perigee alt
481.7 km
Apogee alt
484.2 km
Semi-major
6,861.1 km
B*
-2.5270e-4
RAAN
316.7577°
Arg perigee
272.4197°
Mean anomaly
87.6451°
Rev number
14,522

§ Raw data

STARLINK-305851 58063U 23158N   26144.89424212 -.00007216  00000+0 -25270-3 0  99962 58063  43.0042 316.7577 0001776 272.4197  87.6451 15.27609400145225

JSON: /api/v1/satellites/58063 · /tle

For live sub-satellite position, see the globe view (requires WebGL).

§ Visibility from observer

Set your observer location to see the next 7 days of passes ≥ 10°. The values pass through the URL so the page stays shareable.

No JS? Fill the form by hand. The geolocation button needs JavaScript.